Find Orsted

NORAD ID: 25635 Int'l Des: 1999-008 Owner: DMI Country: DK operational
LEORETROGRADE

現在のビュー

3D地球を読み込み中...

About Orsted

Orsted (NORAD 25635) is a satellite launched Feb 23, 1999 by DMI of DK. It operates in LEO, RETROGRADE orbit with a mass of 62.00 kg.

次回通過

Passes for default location (London). Set your location on the main map for personalized predictions.

高度履歴

Loading altitude history...

軌道要素

1 25635U 99008B 26194.71606407 .00000307 00000-0 74792-4 0 9993
2 25635 96.4803 96.2026 0133529 101.4391 260.1841 14.51831435445819
Epoch: Jul 13, 2026 • Age: 14 hours

現在のステータス

高度 649.2 km
遠地点 / 近地点 N/A
速度 7.58 km/s
衛星直下点 44.22°N, 114.65°W
打ち上げ日 Feb 23, 1999
運用期間 27.3 years
タイプ other

技術仕様

分類 Payload
質量 62.00 kg
乾燥質量 62.00 kg
総質量 62.00 kg
長さ 0.80 m
直径 0.50 m
スパン 8.00 m
形状 Box + Ant
製造者 TERMAB
バスタイプ Orsted
フェーズステータス In Orbit
所有者/国 DMI/DK

Most Searched